Sheboygan Falls, WI

3:02 AM CST on February 13, 2016 (GMT -0600)
Sheboygan County Memorial

Weather History for KSBM - April, 2013

Change the Weather History Date:

Monday, April 22, 2013

  Actual Average Record
Temperature  
Mean Temperature 46 °F -  
Max Temperature 54 °F 55 °F 92 °F (1980)
Min Temperature 37 °F 37 °F 26 °F (1986)
Degree Days  
Heating Degree Days 20    
Moisture  
Dew Point 35 °F    
Average Humidity 68    
Maximum Humidity 89    
Minimum Humidity 48    
Precipitation  
Precipitation 0.00 in - - ()
Sea Level Pressure  
Sea Level Pressure 30.20 in    
Wind  
Wind Speed 10 mph (SSE)    
Max Wind Speed 15 mph    
Max Gust Speed 26 mph    
Visibility 10 miles    
Events      
Averages and records for this station are not official NWS values.
T = Trace of Precipitation, MM = Missing Value Source: NWS Daily Summary

Daily Weather History Graph

Daily Weather History Graph

Search for Another Location

Airport or City:

Trip Planner

Search our weather history database for the weather conditions in past years. The results will help you decide how hot, cold, wet, or windy it might be!

Date:

Astronomy

Apr. 22, 2013 Rise Set
Actual Time 5:56 AM CDT 7:43 PM CDT
Civil Twilight 5:26 AM CDT 8:14 PM CDT
Nautical Twilight 4:48 AM CDT 8:51 PM CDT
Astronomical Twilight 4:08 AM CDT 9:32 PM CDT
Moon 4:26 PM CDT (4/22) 3:57 AM CDT (4/22)
Length of Visible Light 14h 48m
Length of Day
13h 47m
Waxing Gibbous, 88% of the Moon is Illuminated
Apr 22
Waxing Gibbous
Apr 25
Full
May 2
Last Quarter
May 9
New
May 17
First Quarter

Hourly Weather History & Observations

Time (CDT) Temp. Windchill Dew Point Humidity Pressure Visibility Wind Dir Wind Speed Gust Speed Precip Events Conditions
12:53 AM 41.0 °F 33.1 °F 30.9 °F 67% 30.30 in 10.0 mi South 15.0 mph - N/A   Scattered Clouds
1:53 AM 39.9 °F 33.4 °F 32.0 °F 73% 30.29 in 10.0 mi South 10.4 mph - N/A   Clear
2:53 AM 39.0 °F 32.8 °F 32.0 °F 76% 30.28 in 10.0 mi South 9.2 mph - N/A   Clear
3:53 AM 39.0 °F 31.8 °F 33.1 °F 79% 30.27 in 10.0 mi South 11.5 mph - N/A   Partly Cloudy
4:53 AM 37.9 °F 31.5 °F 33.1 °F 83% 30.28 in 10.0 mi South 9.2 mph - N/A   Scattered Clouds
5:53 AM 37.9 °F 32.1 °F 34.0 °F 86% 30.28 in 10.0 mi South 8.1 mph - N/A   Overcast
6:53 AM 37.9 °F 32.7 °F 35.1 °F 89% 30.28 in 10.0 mi SSE 6.9 mph - N/A   Partly Cloudy
7:53 AM 42.1 °F 36.6 °F 36.0 °F 79% 30.28 in 10.0 mi SSE 9.2 mph - N/A   Scattered Clouds
8:53 AM 42.1 °F 39.2 °F 36.0 °F 79% 30.27 in 10.0 mi SSE 4.6 mph - N/A   Overcast
9:53 AM 44.1 °F 40.8 °F 37.0 °F 76% 30.27 in 10.0 mi SSE 5.8 mph - N/A   Overcast
10:53 AM 48.0 °F - 39.9 °F 74% 30.25 in 10.0 mi SSE 10.4 mph - N/A   Overcast
11:53 AM 50.0 °F - 39.9 °F 68% 30.24 in 10.0 mi South 9.2 mph - N/A   Scattered Clouds
12:53 PM 48.9 °F - 39.0 °F 69% 30.22 in 10.0 mi SSE 11.5 mph - N/A   Partly Cloudy
1:53 PM 51.1 °F - 37.9 °F 61% 30.20 in 10.0 mi SSE 10.4 mph 18.4 mph N/A   Clear
2:53 PM 50.0 °F - 36.0 °F 59% 30.19 in 10.0 mi SSE 13.8 mph 19.6 mph N/A   Clear
3:53 PM 52.0 °F - 35.1 °F 53% 30.16 in 10.0 mi SSE 12.7 mph 26.5 mph N/A   Clear
4:53 PM 54.0 °F - 35.1 °F 49% 30.13 in 10.0 mi SSE 10.4 mph 18.4 mph N/A   Clear
5:53 PM 53.1 °F - 35.1 °F 50% 30.11 in 10.0 mi SSE 8.1 mph - N/A   Clear
6:53 PM 51.1 °F - 32.0 °F 48% 30.09 in 10.0 mi SSE 9.2 mph - N/A   Clear
7:53 PM 48.9 °F - 32.0 °F 52% 30.09 in 10.0 mi SSE 10.4 mph - N/A   Clear
8:53 PM 46.9 °F - 33.1 °F 59% 30.08 in 10.0 mi SSE 6.9 mph - N/A   Clear
9:53 PM 45.0 °F 42.6 °F 34.0 °F 65% 30.08 in 10.0 mi South 4.6 mph - N/A   Clear
10:53 PM 43.0 °F 39.5 °F 34.0 °F 71% 30.07 in 10.0 mi South 5.8 mph - N/A   Clear
11:53 PM 44.1 °F 40.8 °F 34.0 °F 68% 30.06 in 10.0 mi South 5.8 mph - N/A   Partly Cloudy